Wetterstation Camping Dickerscheid
Wetterdaten: aktuell Donnerstag, 21.02.2019 17:56
Datum Zeit Temp. Innen Temp. Auen Feuchte I. Feuchte A. Luftdruck Regen Wind W-Richtung W-Richtung Taupunkt Windchill Windben
21.02.2019 17:56 21,3 C 8,9 C 36 % 80 % 1024,6 hPa 0,0 mm 0,7 km/h (0 Bft) S 181 5,6 C 8,9 C 3,2 km/h (1 Bft)
21.02.2019 16:56 21,4 C 9,8 C 35 % 78 % 1024,6 hPa 0,0 mm 0,1 km/h (0 Bft) NO 51 6,1 C 9,8 C 1,6 km/h (1 Bft)
21.02.2019 15:56 21,4 C 10,1 C 35 % 76 % 1024,2 hPa 0,0 mm 0,3 km/h (0 Bft) W 277 6,1 C 10,1 C 1,6 km/h (1 Bft)
21.02.2019 14:56 21,4 C 10,1 C 35 % 76 % 1024,0 hPa 0,0 mm 3,8 km/h (1 Bft) W-NW 303 6,1 C 10,1 C 8,0 km/h (2 Bft)
21.02.2019 13:56 21,3 C 9,1 C 35 % 80 % 1024,2 hPa 0,0 mm 3,6 km/h (1 Bft) NW 325 5,8 C 9,1 C 6,4 km/h (2 Bft)
21.02.2019 12:56 21,3 C 9,2 C 34 % 81 % 1024,2 hPa 0,0 mm 0,3 km/h (0 Bft) N-NW 348 6,1 C 9,2 C 3,2 km/h (1 Bft)
21.02.2019 11:56 21,3 C 8,7 C 34 % 85 % 1024,9 hPa 0,0 mm 1,7 km/h (1 Bft) W-NW 289 6,3 C 8,7 C 3,2 km/h (1 Bft)
21.02.2019 10:56 21,2 C 7,7 C 34 % 88 % 1024,1 hPa 0,0 mm 4,5 km/h (1 Bft) S-SO 167 5,8 C 7,7 C 9,7 km/h (2 Bft)
21.02.2019 09:56 21,1 C 5,8 C 34 % 93 % 1024,0 hPa 0,0 mm 1,5 km/h (1 Bft) S 169 4,8 C 5,8 C 3,2 km/h (1 Bft)
21.02.2019 08:56 20,9 C 4,3 C 34 % 94 % 1023,7 hPa 0,0 mm 0,0 km/h (0 Bft) S 184 3,4 C 4,3 C 0,0 km/h (0 Bft)
21.02.2019 07:56 20,9 C 4,0 C 34 % 93 % 1023,0 hPa 0,0 mm 0,0 km/h (0 Bft) S 184 3,0 C 4,0 C 0,0 km/h (0 Bft)
21.02.2019 06:56 20,9 C 3,6 C 34 % 94 % 1022,8 hPa 0,0 mm 0,0 km/h (0 Bft) S 184 2,7 C 3,6 C 0,0 km/h (0 Bft)
21.02.2019 05:56 21,1 C 2,9 C 34 % 94 % 1022,9 hPa 0,0 mm 0,0 km/h (0 Bft) S 184 2,0 C 2,9 C 0,0 km/h (0 Bft)
21.02.2019 04:56 21,1 C 2,5 C 34 % 92 % 1023,0 hPa 0,0 mm 0,0 km/h (0 Bft) S 184 1,3 C 2,5 C 0,0 km/h (0 Bft)
21.02.2019 03:56 21,1 C 2,9 C 34 % 92 % 1023,0 hPa 0,0 mm 0,0 km/h (0 Bft) S 184 1,7 C 2,9 C 0,0 km/h (0 Bft)
21.02.2019 02:56 21,1 C 3,7 C 34 % 91 % 1022,7 hPa 0,0 mm 0,0 km/h (0 Bft) S 184 2,4 C 3,7 C 0,0 km/h (0 Bft)
21.02.2019 01:56 21,2 C 3,8 C 34 % 90 % 1022,5 hPa 0,0 mm 0,0 km/h (0 Bft) S 184 2,3 C 3,8 C 0,0 km/h (0 Bft)
21.02.2019 00:56 21,2 C 4,1 C 33 % 92 % 1022,4 hPa 0,0 mm 0,0 km/h (0 Bft) S 184 2,9 C 4,1 C 0,0 km/h (0 Bft)
20.02.2019 23:56 21,2 C 3,2 C 33 % 91 % 1022,5 hPa 0,0 mm 0,0 km/h (0 Bft) S 184 1,9 C 3,2 C 0,0 km/h (0 Bft)
20.02.2019 22:56 21,2 C 3,2 C 33 % 90 % 1022,1 hPa 0,0 mm 0,0 km/h (0 Bft) S 184 1,7 C 3,2 C 0,0 km/h (0 Bft)
20.02.2019 21:56 21,2 C 3,3 C 33 % 89 % 1022,0 hPa 0,0 mm 0,0 km/h (0 Bft) S 184 1,7 C 3,3 C 0,0 km/h (0 Bft)
20.02.2019 20:56 21,2 C 3,7 C 33 % 87 % 1021,9 hPa 0,0 mm 0,0 km/h (0 Bft) S 184 1,7 C 3,7 C 0,0 km/h (0 Bft)
20.02.2019 19:56 21,3 C 4,1 C 33 % 84 % 1021,7 hPa 0,0 mm 0,0 km/h (0 Bft) S 184 1,6 C 4,1 C 0,0 km/h (0 Bft)
20.02.2019 18:56 21,3 C 5,2 C 33 % 81 % 1021,4 hPa 0,0 mm 0,0 km/h (0 Bft) S 184 2,2 C 5,2 C 0,0 km/h (0 Bft)
20.02.2019 18:00 21,3 C 6,2 C 34 % 78 % 1020,8 hPa 0,0 mm 0,7 km/h (0 Bft) S 184 2,7 C 6,2 C 1,6 km/h (1 Bft)
_ Min-Zeit 05:15 04:58 18:04 14:58 18:00 - 18:03 - - 04:58 04:58 18:03
Minimum _ 20,9 C 2,4 C 33 % 74 % 1020,8 hPa - 0,0 km/h (0 Bft) - - 1,2 C 2,4 C 0,0 km/h (0 Bft)
_ Max-Zeit 18:12 15:04 17:48 05:45 11:41 18:00 14:00 - - 12:45 15:04 10:54
Maximum _ 21,9 C 10,3 C 36 % 94 % 1024,9 hPa 0,0 mm 7,2 km/h
W-NW (2 Bft)
- - 6,7 C 10,3 C 14,5 km/h
O-SO (3 Bft)
Durchschnitt _ 21,2 C 5,6 C 34 % 86 % 1022,9 hPa #0,0 mm 0,6 km/h (0 Bft) W-NW - 3,4 C 5,6 C 1,5 km/h (1 Bft)